Location: Arpaise
(41.0333°N, 14.7333°E)
Time: 14:29:06
(UTC+00:00)

Cosmos 846 Rocket - Pass Details

Date: 22 January 2021
Orbit: 948 x 991 km, 82.9° (Epoch: 04 March)

Event Time Altitude Azimuth Distance (km) Brightness Sun altitude
Rises 05:48:34 0° 349° (N) 3,632 8.2 -6.3°
Reaches altitude 10° 05:51:05 10° 347° (NNW) 2,681 7.5 -5.8°
Maximum altitude 05:57:07 64° 267° (W) 1,042 5.5 -4.8°
Drops below altitude 10° 06:03:07 10° 187° (S) 2,665 8.0 -3.7°
Sets 06:05:37 0° 184° (S) 3,609 8.7 -3.3°
